Location: Bishopstone
(51.0167°N, 1.9000°W)
Time: 07:07:31
(UTC+00:00)

Meteor 2-17 Rocket - Pass Details

Date: 16 September 2019
Orbit: 934 x 957 km, 82.5° (Epoch: 22 October)

Event Time Altitude Azimuth Distance (km) Brightness Sun altitude
Rises 20:13:21 0° 349° (NNW) 3,627 8.1 -17.8°
Reaches altitude 10° 20:15:51 10° 349° (N) 2,674 7.3 -18.2°
Maximum altitude 20:21:59 89° 263° (W) 948 4.4 -19.0°
Enters shadow 20:26:43 18° 172° (S) 2,152 6.0 -19.6°
